Location: Brahman Valley
(40.6513°N, 111.8855°W)
Time: 21:35:01
(UTC+00:00)

M-CUBED/EXP-1 PRIME - Visible Passes

Search period start: 24 June 2021 00:00
Search period end: 04 July 2021 00:00
Orbit: 427 x 659 km, 101.7° (Epoch: 24 June)

Date Brightness Start Highest point End Pass type
(mag) Time Alt. Az. Time Alt. Az. Time Alt. Az.
24 Jun ? 08:20:22 10° NNE 08:23:23 42° ENE 08:23:23 42° ENE visible
24 Jun ? 09:55:53 10° NNW 09:57:52 14° WNW 09:58:57 13° W visible
25 Jun ? 08:13:59 10° NE 08:16:51 34° E 08:16:51 34° E visible
25 Jun ? 09:48:56 10° NNW 09:51:27 17° WNW 09:52:25 16° W visible
26 Jun ? 08:07:39 10° NE 08:10:18 27° E 08:10:18 27° E visible
26 Jun ? 09:42:08 10° NNW 09:45:02 21° WNW 09:45:52 20° W visible
27 Jun ? 08:01:22 10° NE 08:03:46 22° E 08:03:46 22° E visible
27 Jun ? 09:35:23 10° N 09:38:37 26° WNW 09:39:19 25° W visible
28 Jun ? 07:55:08 10° NE 07:57:12 18° E 07:57:12 18° E visible
28 Jun ? 09:28:42 10° N 09:32:10 33° WNW 09:32:46 31° W visible
29 Jun ? 07:49:02 10° ENE 07:50:39 15° E 07:50:39 15° E visible
29 Jun ? 09:22:03 10° N 09:25:43 41° WNW 09:26:13 39° W visible
30 Jun ? 07:43:08 10° ENE 07:44:05 12° E 07:44:05 12° E visible
30 Jun ? 09:15:26 10° N 09:19:15 52° WNW 09:19:39 50° W visible
01 Jul ? 09:08:51 10° NNE 09:12:47 67° WNW 09:13:04 64° W visible
02 Jul ? 09:02:17 10° NNE 09:06:18 85° WNW 09:06:30 79° SW visible
03 Jul ? 08:55:45 10° NNE 08:59:48 77° ESE 08:59:54 76° SE visible
03 Jul ? 10:32:36 10° NW 10:33:27 11° WNW 10:34:18 10° WNW visible
